7 * 24
多渠道服务支持
NAVSTAR 47 (USA 150)是美国于2000年5月11日发射的GPS导航卫星,隶属于美国全球定位系统(GPS)星座。作为美国太空军运营的中地球轨道导航卫星,它承担全球定位、导航与授时服务功能,可为全球绝大多数区域提供高精度的位置与时间信息,支撑民用交通、物流及军事导航应用,是GPS全球覆盖网络的重要组成部分。
美国
(US)
| 数据来源 | 国际轨道数据 |
| 星历时间: | 2026-05-20T03:58:47+0800 轨道信息已过期23天 |
| 半长轴: | 26541.111km |
| 偏心率: | 0.0028111 |
| 轨道倾角: | 55.130° |
| 近地点辐角 | 247.805° |
| 升交点赤经 | 20.447° |
| 平近点角 | 339.590° |
| 近地点: | 20088.364km |
| 远地点: | 20237.584km |
| 周期: | 717.197分钟 |
| 每日圈数: | 2.007817 |